Volver al catálogo

YAOGAN 25B

ActivoMilitarLEO
NORAD 40339·PAYLOAD·🇨🇳 China

Lanzado Dec 10, 2014 desde Jiuquan Satellite Launch Center

Loading…

Próximos Pases (próximas 24 horas)

TLE

ActualizadoSource: Space-Track

Época: Sep 14, 2026, 14:35 UTC

1 40339U 14080B   26257.60828628 -.00000108  00000-0 -18627-4 0  9993
2 40339  63.3856  80.4890 0374785   9.4145 351.3655 13.45439916577662

Sigue YAOGAN 25B en tiempo real con AllMySat

Download on the App Store